Lapse_Rate
4.7 4.4 4.7 5.0 5.2 5.6 5.7 5.7 6.0 6.0 6.7 7.6 7.4 8.2 8.1 8.0 8.3 8.3 8.2 8.1 8.0 8.5 8.1 8.2 8.7 9.3 9.7 9.9 9.9 9.9 9.7 9.6 8.9 9.4 10.0 10.1 9.9 10.0 9.9 9.6 9.5 9.5 9.5
4.2 4.3 4.8 5.2 5.6 6.0 6.1 6.1 6.0 6.5 6.8 7.2 7.5 8.2 8.3 8.4 7.9 8.1 8.0 8.4 8.3 8.3 8.6 8.8 9.5 9.8 9.7 9.8 9.8 9.7 9.7 9.7 9.4 9.0 9.5 9.3 9.6 9.8 10.0 9.7 9.7 9.6 9.3
4.5 5.2 5.5 5.7 6.0 6.4 6.3 6.3 6.2 6.4 7.1 7.6 7.8 7.5 7.8 7.7 8.0 7.6 7.2 7.5 7.7 8.3 8.5 8.3 8.7 9.2 9.5 9.6 9.7 9.6 9.2 9.3 9.2 8.9 9.1 9.6 9.7 9.9 9.7 9.8 9.7 9.6 9.4
5.1 5.4 5.7 6.0 6.2 6.3 6.2 6.3 6.3 6.5 6.9 7.7 7.5 7.8 7.5 7.4 7.2 6.8 6.9 7.4 7.4 7.7 7.7 7.7 7.8 9.0 9.4 9.5 9.2 9.0 9.0 9.0 9.0 9.0 9.0 9.1 9.2 9.7 9.2 9.3 9.2 9.6 9.7
5.1 5.7 6.1 6.2 6.2 6.4 6.4 6.3 6.6 6.8 7.7 7.7 7.5 7.2 6.9 6.8 6.5 6.6 6.8 7.0 7.3 7.4 7.3 7.3 7.7 7.2 7.5 9.2 9.5 9.2 9.2 9.0 8.8 8.8 8.8 9.0 9.0 9.0 8.3 8.3 9.1 9.4 9.6
5.3 5.5 6.1 6.1 6.5 6.7 6.6 6.4 6.9 7.4 7.9 7.6 7.3 6.9 6.3 6.0 5.6 4.7 5.4 6.4 6.2 6.2 6.3 6.7 7.1 7.2 9.3 8.1 8.0 8.6 9.1 9.1 8.8 8.7 8.6 8.7 9.0 9.2 9.0 8.4 7.8 8.8 8.7
5.1 5.6 6.0 6.3 6.6 7.0 6.7 6.9 7.1 7.7 7.8 7.5 6.5 6.1 6.1 6.2 4.8 4.1 3.5 5.6 5.7 5.9 6.1 6.5 7.5 8.8 8.7 9.7 9.6 9.4 9.1 9.0 9.1 9.1 8.7 9.0 9.0 9.2 9.0 8.2 8.4 8.6 8.9
5.4 5.9 6.4 6.7 6.9 7.2 6.9 7.0 7.1 7.5 7.3 7.1 6.4 6.3 6.1 5.3 4.2 4.3 4.0 5.4 5.8 5.9 6.2 7.1 8.3 9.4 9.7 9.4 9.4 9.2 9.3 9.5 9.6 9.5 9.3 9.3 9.5 9.7 9.3 9.0 9.1 9.1 9.5
5.8 6.6 7.0 7.0 7.1 7.2 7.3 7.2 7.2 7.1 7.2 6.7 6.1 5.5 5.5 5.4 4.2 4.2 4.9 5.3 5.3 5.6 6.3 7.7 8.3 9.3 9.4 9.4 9.3 9.0 9.3 9.5 9.2 9.0 8.3 8.4 8.6 8.6 8.7 9.3 8.3 8.6 8.5
6.6 6.8 7.1 7.1 7.0 7.1 7.4 7.1 6.8 6.7 6.4 5.8 5.0 4.9 3.8 5.0 3.7 4.4 5.1 5.5 5.2 5.9 6.8 7.6 6.9 7.2 8.8 9.5 9.3 9.1 8.8 8.8 9.4 9.5 9.5 9.4 9.0 9.4 8.4 9.0 9.5 8.3 8.3
6.1 6.4 6.6 6.8 6.6 7.0 7.1 6.9 6.6 6.5 5.6 4.7 4.4 4.5 4.9 4.6 5.0 4.7 5.4 5.8 6.1 6.6 6.9 6.9 7.3 6.1 8.3 8.7 8.5 9.1 8.7 8.6 8.6 9.0 9.3 9.5 9.6 9.5 9.6 9.6 9.7 9.5 8.9
6.0 5.8 5.7 5.7 6.1 6.3 6.5 6.7 5.8 5.6 5.5 4.7 4.2 4.8 5.4 4.8 4.4 5.1 5.5 5.9 6.1 6.4 6.3 6.5 6.1 6.3 6.5 6.7 7.3 7.1 7.3 7.5 8.2 8.2 8.6 8.9 8.9 8.9 9.2 9.4 9.2 9.3 9.5
5.1 5.0 4.9 5.3 6.0 6.2 6.4 6.7 6.2 5.7 6.0 6.1 6.3 6.4 6.8 6.3 6.4 5.0 5.3 5.6 6.1 6.1 6.4 6.2 5.6 5.3 5.3 6.0 6.2 6.2 6.2 7.2 7.4 7.8 7.7 8.2 7.5 7.6 7.8 8.0 8.3 8.7 9.0
4.4 4.5 5.0 5.6 6.2 7.2 6.9 6.9 6.7 6.1 6.6 7.1 7.3 7.3 7.7 7.2 7.0 6.9 6.6 6.9 5.8 6.3 5.8 5.9 4.5 4.9 4.7 5.0 6.1 6.4 6.4 6.4 6.4 6.8 6.8 6.7 6.7 6.9 7.5 7.9 8.2 8.2 8.1
4.3 5.5 5.4 6.5 6.8 7.3 7.6 7.8 6.9 7.1 7.5 8.0 7.6 7.6 7.5 7.3 7.5 6.7 6.6 7.5 7.4 6.6 4.8 5.6 5.9 5.7 5.8 6.1 6.1 6.1 6.1 5.9 5.9 5.9 6.3 6.4 6.5 6.8 7.2 7.4 7.5 7.6 7.8
5.1 7.3 8.1 7.6 7.4 7.3 6.9 7.4 5.5 5.7 5.0 5.7 6.0 6.4 7.0 6.3 6.0 6.6 7.1 7.5 7.4 6.6 6.4 6.2 5.7 5.2 5.5 5.9 5.9 5.7 5.9 5.3 5.4 5.4 6.1 6.3 6.4 6.8 7.2 7.7 7.4 7.5 7.6
5.8 7.2 7.3 7.0 6.9 6.8 6.1 6.3 7.2 6.7 5.3 6.1 6.8 7.3 7.1 6.8 6.3 7.1 7.5 7.8 7.4 6.6 7.1 7.1 6.3 5.9 5.8 6.3 6.2 6.0 5.6 5.3 4.3 5.4 5.6 5.8 5.9 6.7 7.5 8.1 8.2 8.2 7.9
6.3 5.7 6.5 6.7 7.2 6.9 6.7 6.4 6.3 6.7 6.6 7.2 6.6 6.9 7.8 7.6 7.2 7.2 7.7 7.9 7.7 6.7 7.1 7.2 7.0 6.8 6.6 6.7 6.4 5.9 5.5 4.9 4.7 4.5 5.3 5.3 5.5 6.4 7.1 7.5 7.7 7.7 8.6
6.7 7.2 6.1 6.0 6.1 6.0 6.0 5.8 5.7 6.0 6.3 6.5 7.5 5.8 6.1 6.2 7.5 7.6 7.6 7.8 7.8 7.9 8.0 7.4 7.3 7.0 6.9 6.8 6.1 5.1 4.6 4.7 4.0 3.9 4.7 4.9 5.0 6.1 6.9 6.9 7.1 6.6 7.3
7.0 5.8 5.9 6.2 6.2 6.3 6.4 6.4 6.6 6.9 7.3 7.5 7.7 7.7 8.0 4.5 7.0 7.4 7.1 7.0 6.7 6.9 7.3 7.3 7.3 7.2 6.9 6.6 6.1 5.2 5.0 5.2 5.0 4.9 4.6 4.8 4.9 5.5 6.3 6.6 7.0 7.5 8.3
7.7 7.5 6.4 5.8 6.0 6.3 6.3 6.8 7.1 7.2 7.3 7.7 7.7 7.2 5.8 7.1 7.7 7.8 7.8 7.0 6.3 6.7 6.9 7.2 7.0 6.8 6.5 6.0 5.9 5.9 5.3 5.2 4.7 4.6 4.7 4.9 4.7 5.1 5.6 6.3 6.9 7.5 7.8
6.7 6.9 6.7 6.3 6.1 6.4 6.6 6.6 6.9 6.8 6.7 6.8 7.1 7.2 3.8 4.4 6.5 7.0 7.3 7.0 6.7 6.5 6.6 6.6 6.8 7.0 7.0 6.8 6.6 6.1 5.3 5.0 4.9 4.8 4.7 4.1 4.7 5.4 5.4 5.7 6.2 6.5 6.9
5.8 5.9 6.3 6.4 6.2 6.0 5.9 6.0 5.8 5.7 5.9 5.7 6.1 6.7 6.9 6.0 6.2 6.6 6.8 6.7 6.7 6.3 5.7 5.3 5.5 5.9 5.6 4.7 4.8 5.3 5.5 5.7 5.2 4.0 4.1 4.4 5.0 5.4 5.2 5.4 5.5 5.8 5.8
5.7 6.0 6.5 6.6 6.6 6.3 5.8 5.7 5.5 4.8 5.5 5.9 5.9 6.0 5.8 6.1 6.2 6.2 6.3 6.4 6.3 6.0 5.4 4.2 4.3 5.2 5.7 4.7 4.1 3.8 4.0 3.7 3.3 3.5 2.6 3.7 4.7 5.2 5.5 5.5 5.5 5.1 5.4
6.3 6.4 6.7 6.8 6.8 6.5 6.0 5.5 5.6 5.8 5.8 5.8 5.8 5.7 5.6 5.4 5.3 5.4 5.9 6.2 6.0 5.8 5.5 3.7 3.5 4.1 3.7 3.5 4.0 3.5 3.5 1.9 2.5 2.3 2.7 3.0 3.9 3.7 4.6 5.4 5.2 5.6 5.1
6.2 6.5 6.7 6.7 6.8 6.6 6.5 6.7 6.6 6.6 6.7 6.5 6.3 6.1 6.0 5.9 5.8 5.4 5.3 5.1 5.7 5.5 5.2 4.9 3.7 2.9 3.5 3.7 3.4 2.8 1.3 1.2 2.0 1.7 2.4 3.8 4.3 5.0 5.2 5.3 5.2 6.0 5.9
Wind_Speed
4 3 4 6 7 7 8 9 10 11 7 3 4 3 4 3 7 4 4 5 6 6 5 5 7 7 7 8 8 8 9 9 12 14 13 14 16 15 17 22 16 8 11
2 3 4 6 6 7 8 9 11 8 7 5 7 6 6 7 6 4 5 6 6 6 6 7 9 8 11 11 8 11 10 12 11 18 14 12 14 15 15 16 11 9 10
1 2 4 5 5 7 8 8 8 7 7 9 8 8 7 7 4 4 4 5 4 6 7 8 11 11 12 10 11 11 10 9 10 11 14 12 12 11 13 12 13 8 7
2 2 3 5 6 6 7 8 7 7 7 6 6 7 7 5 3 2 3 4 5 7 8 9 10 11 12 13 11 11 10 9 11 11 11 11 11 11 10 9 10 5 5
2 4 5 5 6 6 8 9 7 7 5 7 7 4 4 3 1 2 3 5 8 10 10 10 9 12 17 14 10 12 13 11 10 11 11 11 10 9 6 7 9 6 5
5 6 5 6 6 7 8 9 8 7 6 4 5 2 3 3 6 7 6 5 7 9 9 10 10 13 11 15 15 16 14 13 13 11 11 11 13 11 8 5 6 7 6
6 7 7 6 7 8 9 9 9 8 7 6 3 2 2 4 5 7 7 5 7 8 9 9 9 7 11 10 13 15 16 16 16 13 13 12 12 11 10 8 6 6 7
7 8 7 7 8 7 9 9 8 8 8 5 4 4 4 3 4 6 7 6 7 8 9 9 10 10 10 13 14 13 13 12 11 10 11 12 11 11 9 9 11 9 8
7 8 8 8 8 8 9 8 8 7 5 4 3 3 2 2 5 7 7 6 7 8 8 9 10 10 13 18 14 13 13 12 12 14 16 19 19 17 15 9 8 8 8
8 8 9 9 9 9 8 7 6 5 4 3 3 3 3 1 4 6 7 5 7 7 8 9 9 10 17 17 13 11 11 11 13 12 11 9 14 14 14 12 9 8 6
6 8 9 9 8 9 8 5 5 5 3 4 4 3 2 1 1 4 6 5 6 7 7 7 7 14 17 16 15 9 12 12 12 10 9 8 7 8 7 8 10 9 9
7 9 10 9 8 7 7 4 2 3 4 4 4 4 3 3 2 3 6 7 8 7 7 7 8 15 15 14 11 14 15 11 7 7 7 7 6 7 7 6 9 11 14
9 10 9 10 9 7 6 4 3 4 4 4 4 5 4 4 3 5 7 9 8 6 6 10 13 13 12 9 11 12 9 6 7 7 7 7 7 8 9 7 10 12 12
8 9 9 9 9 5 4 3 4 4 4 4 5 5 4 4 4 4 4 4 5 6 5 6 6 8 7 7 7 7 6 6 6 7 7 8 7 7 6 4 5 4 6
6 7 8 6 8 7 5 4 5 5 5 4 5 5 5 5 5 6 5 5 4 4 5 4 5 5 6 6 6 6 6 7 6 6 7 7 7 7 6 6 4 3 5
6 6 4 5 5 6 5 5 8 8 6 10 9 7 4 9 6 8 9 9 7 5 4 5 5 5 6 7 7 7 6 7 7 6 6 7 7 7 7 6 6 5 4
7 7 5 5 4 5 5 5 6 5 5 8 10 11 13 10 12 12 11 9 8 5 5 5 5 5 5 6 6 6 6 6 7 5 6 6 7 7 7 6 6 6 5
7 8 6 5 5 5 4 5 6 7 6 5 7 8 9 14 14 12 12 8 6 5 5 5 5 5 5 6 5 6 6 6 5 5 5 5 6 6 6 6 6 6 6
6 6 5 5 5 5 4 5 6 6 6 6 6 5 6 9 13 14 13 8 8 7 6 6 5 5 5 5 4 4 5 5 5 5 5 5 5 5 6 6 6 6 6
7 8 8 6 5 5 5 5 5 6 6 7 7 8 5 2 5 7 8 8 7 8 7 7 6 5 5 4 4 4 4 4 4 4 4 4 5 5 5 6 5 6 6
5 6 10 6 5 6 7 7 7 6 6 7 7 7 9 7 8 8 7 7 7 8 8 7 6 5 5 4 4 4 4 4 4 4 4 4 4 4 5 4 5 4 5
5 6 6 6 5 7 8 9 8 7 8 8 8 7 7 6 8 8 8 8 8 8 7 7 6 6 5 5 4 4 4 4 3 3 3 3 4 4 4 4 4 4 4
6 6 6 6 7 9 8 9 8 8 8 8 8 8 7 8 8 9 9 8 8 8 9 8 7 6 8 8 8 6 4 4 3 2 3 3 3 4 4 4 4 4 4
7 7 8 7 7 8 8 8 8 9 9 9 9 8 9 8 9 11 9 8 8 7 10 9 9 9 9 9 9 8 8 6 5 4 4 3 4 4 4 4 4 4 4
6 7 8 8 8 7 8 8 9 9 9 9 9 9 10 10 10 10 10 9 8 8 9 10 11 12 14 13 11 11 9 9 7 4 4 4 4 4 3 3 3 3 4
7 8 8 7 7 7 6 6 6 7 7 7 7 8 9 9 9 10 10 10 9 9 10 10 12 15 14 13 13 13 12 11 8 7 4 5 4 3 3 3 3 3 3
Wind_Direction
94 62 35 21 9 352 346 343 340 330 325 246 219 263 317 271 272 270 265 274 270 279 271 270 276 282 291 295 292 291 289 292 293 298 300 301 299 294 290 291 281 291 330
70 36 23 11 350 340 337 335 335 330 335 336 304 300 286 292 268 270 271 261 269 272 278 274 287 298 294 300 300 296 293 292 294 294 303 301 307 308 292 290 263 270 294
66 4 8 341 328 334 332 328 321 312 303 310 312 301 299 292 293 306 292 292 284 288 295 294 301 302 300 305 302 297 292 296 296 292 296 295 291 297 298 276 275 260 265
235 332 307 308 325 321 322 324 319 314 309 306 311 303 295 301 325 294 272 294 303 297 298 302 307 308 309 308 303 298 297 296 295 291 288 292 293 295 306 274 263 234 257
259 267 279 301 307 317 328 325 314 305 310 310 299 311 323 322 3 357 328 319 313 311 311 312 314 320 311 310 307 306 305 300 294 292 289 288 289 297 307 330 284 276 259
252 263 284 283 301 323 323 315 311 311 298 300 307 314 99 65 23 53 18 342 330 328 325 323 320 315 318 318 306 303 300 297 293 290 291 278 283 282 287 275 308 285 270
257 266 269 287 301 306 314 311 299 299 291 299 273 223 113 79 51 49 31 351 335 333 329 327 326 327 316 319 309 298 295 294 286 291 279 284 291 296 297 288 268 280 284
274 273 278 287 284 295 307 303 299 297 292 280 214 176 137 86 50 23 6 339 330 332 331 326 326 319 327 317 315 310 312 310 305 295 282 279 283 288 286 294 291 280 273
278 286 285 285 278 282 295 299 302 299 301 255 203 161 143 92 38 15 348 340 333 331 327 328 325 322 327 318 320 319 322 314 313 305 289 287 285 283 280 286 276 237 260
302 297 295 290 269 273 287 291 296 287 284 197 161 137 110 80 32 11 352 334 329 328 325 326 327 327 318 327 325 323 318 326 325 318 313 291 270 275 268 258 262 266 267
298 301 298 290 275 275 277 270 287 280 229 182 171 177 202 206 8 351 346 330 324 323 325 327 331 327 329 331 331 321 325 334 319 311 306 299 290 284 280 261 250 243 250
309 305 304 303 299 283 255 262 260 222 201 190 199 226 237 232 255 301 310 320 323 318 315 323 316 331 333 330 328 331 333 325 320 317 314 309 306 297 288 277 260 247 241
311 313 314 317 308 278 243 224 180 194 206 212 231 247 249 228 250 266 286 298 302 310 307 312 317 325 331 323 336 337 335 340 329 325 325 320 316 304 292 271 251 244 240
315 319 318 320 324 281 244 216 200 201 213 242 258 259 255 244 250 257 268 291 280 303 318 312 314 317 316 317 326 342 345 343 330 326 325 321 319 323 315 298 257 234 228
310 312 316 308 316 293 259 235 209 207 214 254 267 256 249 248 245 234 250 291 299 321 314 317 330 334 336 343 343 345 344 347 346 338 335 337 337 341 347 348 346 307 247
287 292 296 299 296 280 263 244 220 240 219 231 241 231 240 240 218 224 255 276 280 313 307 326 330 332 331 333 338 341 344 347 346 336 338 342 343 345 349 359 3 5 24
282 288 294 294 293 290 257 235 239 209 247 257 246 236 231 240 231 240 253 268 265 260 289 311 311 322 323 323 330 334 336 342 330 336 340 342 343 343 349 2 6 11 15
274 267 278 277 279 273 260 252 239 237 246 256 234 245 246 235 236 237 246 271 261 242 264 281 295 306 311 317 324 327 330 332 338 334 338 342 347 340 351 359 6 359 356
276 278 269 266 264 254 263 260 243 234 244 258 262 253 242 255 245 242 247 252 263 271 270 266 270 278 288 303 311 312 315 321 326 327 332 339 346 343 349 351 347 351 341
281 270 263 266 269 264 241 217 226 236 250 259 260 252 246 209 235 232 232 238 246 255 263 261 263 262 268 278 289 294 298 312 323 324 333 331 339 337 342 340 345 342 351
280 287 284 264 262 260 251 241 233 238 248 254 256 244 225 229 246 246 243 233 237 245 250 253 251 249 249 252 260 273 283 294 307 311 318 326 333 334 339 333 335 339 343
247 265 267 265 263 263 260 248 244 247 251 253 257 255 222 224 241 246 246 242 239 239 243 245 247 241 238 240 247 253 265 271 284 294 306 308 319 332 336 337 340 341 343
264 264 264 262 262 265 263 256 241 243 249 248 251 255 249 238 238 240 243 243 243 241 232 227 235 235 229 225 223 228 245 262 264 276 291 303 314 331 333 337 343 346 355
261 254 261 266 264 264 264 260 247 240 248 251 250 248 249 249 249 242 238 236 237 233 226 220 226 229 224 217 211 211 220 229 219 239 250 280 297 313 324 328 341 346 348
259 262 261 265 268 266 271 262 251 245 244 246 251 250 249 245 243 243 243 234 227 224 223 216 220 225 222 216 209 203 203 199 203 215 237 251 273 288 291 310 322 330 352
266 264 257 264 269 258 266 273 273 268 267 266 267 265 263 261 256 253 239 232 232 221 218 217 216 215 216 213 209 200 194 192 197 209 231 253 260 266 270 288 305 298 317